Regional Weather Roundup
Issued by NWS Charleston, SC

Current Version | Previous Version | Text Only | Print | Product List | Glossary Off
Versions: 1 2 3 4 5 6 7 8 9 10 11 12 13 14 15 16 17 18 19 20 21 22 23 24 25 26 27 28 29 30 31 32 33 34 35 36 37 38 39 40 41 42 43 44 45 46 47 48 49 50
482 ASUS42 KCHS 120111 RWRCHS REGIONAL WEATHER ROUNDUP NATIONAL WEATHER SERVICE CHARLESTON SC 800 PM EST MON DEC 11 2017 NOTE: "FAIR" INDICATES FEW OR NO CLOUDS BELOW 12,000 FEET WITH NO SIGNIFICANT WEATHER AND/OR OBSTRUCTIONS TO VISIBILITY. NOT ALL STATIONS ARE QUALITY CONTROLLED. USE DATA WITH CAUTION... ESPECIALLY DEWPOINT OBSERVATIONS. SCZ027-030-031-034>040-042>050-120200- ...SOUTHEAST SOUTH CAROLINA... CITY SKY/WX TMP DP RH WIND PRES REMARKS N CHARLESTON CLEAR 42 38 85 S8 30.07S WATERFRONT PRK N/A 50 43 77 VRB3 29.93S JOHNS ISLAND FAIR 46 43 87 S3 30.07F PINOPOLIS N/A 48 37 66 VRB3 29.98F MONCKS CORNER FAIR 37 36 93 CALM 30.05F SUMMERVILLE FAIR 39 36 87 CALM 30.07S BEAUFORT MCAS CLEAR 47 40 76 SW7 30.08S BEAUFORT ARPT FAIR 45 41 87 S5 30.08S HILTON HEAD IS CLEAR 48 43 81 W7 30.09S WALTERBORO CLEAR 43 37 81 SW5 30.07S ALLENDALE FAIR 46 37 71 CALM 30.05S ...SOUTHERN MIDLANDS AND PEE DEE... CITY SKY/WX TMP DP RH WIND PRES REMARKS GEORGETOWN FAIR 37 36 93 CALM 30.08S KINGSTREE FAIR 37 36 93 CALM 30.04F ORANGEBURG CLEAR 44 37 76 SW5 30.04S BARNWELL N/A 52 37 58 S3 30.04S AIKEN FAIR 46 34 61 S7 30.05S MANNING FAIR 39 23 52 MISG 30.04F COLUMBIA CLEAR 43 38 82 CALM 30.01F SUMTER CLEAR 42 35 74 SW5 30.00F FLORENCE CLEAR 41 34 76 S6 30.03F MYRTLE BEACH CLEAR 42 39 89 SW5 30.07F N MYRTLE BEACH CLEAR 40 38 93 CALM 30.05F $$ GAZ063-065-086>088-099>101-113>116-118-119-134>141-150-120200- ...SOUTHEAST GEORGIA... CITY SKY/WX TMP DP RH WIND PRES REMARKS SAVANNAH ARPT CLEAR 49 38 65 SW8 30.09S HUNTER AAF CLEAR 50 37 61 S6 30.06F FORT STEWART CLEAR 44 40 84 CALM 30.08S STATESBORO CLEAR 41 37 87 CALM 30.07S SYLVANIA CLEAR 48 40 74 CALM 30.07F CLAXTON FAIR 43 41 95 CALM 30.09S ...CSRA...CENTRAL AND FAR SOUTHEAST GEORGIA... CITY SKY/WX TMP DP RH WIND PRES REMARKS THOMSON CLEAR 41 37 84 W5 30.07S AUGUSTA-BUSH CLEAR 42 36 79 CALM 30.03F AUGUSTA-DANIEL CLEAR 51 35 54 S6 30.03F SWAINSBORO FAIR 50 37 62 N3 30.07S VIDALIA CLEAR 48 39 71 SW5 30.08F EASTMAN FAIR 49 31 49 SW5 30.10S HAZLEHURST FAIR 49 36 61 SW5 30.08S ALMA CLEAR 45 39 79 CALM 30.10S WAYCROSS CLEAR 47 37 67 CALM 30.11S JESUP NOT AVBL BAXLEY FAIR 45 37 76 CALM 30.10S BRUNSWICK CLEAR 48 36 61 SW6 30.12S SAINT SIMONS CLEAR 54 39 57 SW9 30.11F $$ SCZ027-028-034-036>038-045-046-048>050-GAZ119-141-120200- ...LAKE AND SUPPLEMENTAL COASTAL OBSERVATIONS... STATION/POSITION TIME TEMP WIND PRES WAVE SWELL AIR SEA DIR/SP/G HT/PER HT/PER/DIR (UTC) (F) (DEG/KT/KT) (MB) (FT/S) (FT/S/D) WINYAH BAY 2345 47 240/ 3 1018.0 LAKE MURRAY 0020 55 200/ 10/ 11 1015.6 ACE BASIN NERRS 2345 46 CALM 1018.0 FORT PULASKI 0048 51 55 220/ 4/ 5 1019.2S SAPELO ISLAND NOT AVBL $$ ANZ835-935-AMZ111-154-330-350-352-354-370-450-454-472-120200- ...C-MAN AND BUOY OBSERVATIONS... STATION/POSITION TIME TEMP WIND PRES WAVE SWELL AIR SEA DIR/SP/G HT/PER HT/PER/DIR (UTC) (F) (DEG/KT/KT) (MB) (FT/S) (FT/S/D) BUOY 41004 0050 74 260/ 16/ 23 1018.2S 3/ 5 2/100/ 8 BUOY 41008 2350 59 61 210/ 14/ 17 1019.6 2/ 3 2/ 80/ 9 FOLLY BEACH CMAN 0000 51 230/ 7/ 8 1018.8F CAPERS NEARSHORE 0008 51 57 250/ 14/ 17 1017.9F FRIPP NEARSHORE 0008 53 56 200/ 10/ 19 1017.6S STATION/POSITION TIME TEMP WIND PRES WAVE SWELL AIR SEA DIR/SP/G HT/PER HT/PER/DIR (UTC) (F) (DEG/KT/KT) (MB) (FT/S) (FT/S/D) 5E ST. MARYS GA 0030 60 N/A 1/ 9 FRYING PAN BUOY 0050 55 60 260/ 10/ 12 1017.7R 3/ 6 2/200/ 6 BUOY 41025 0050 54 75 270/ 2/ 4 1017.4R 3/ 6 3/200/ 6 CAPE LOOKOUT NC 0000 190/ 4/ 5 1017.6R BUOY 41002 2350 66 76 240/ 10/ 14 1018.5 4/ 8 3/ 90/ 8 BUOY 41010 NOT AVBL ST AUGUSTINE FL 0000 53 62 230/ 5/ 7 1021.7R $$

USA.gov is the U.S. government's official web portal to all federal, state and local government web resources and services.